Precipitable_Water
0.28 0.23 0.20 0.20 0.23 0.23 0.18 0.15 0.17 0.21 0.23 0.17 0.16 0.16 0.18 0.22 0.21 0.20 0.21 0.23 0.27 0.29 0.32 0.36 0.42 0.47 0.47 0.46 0.46 0.47 0.41 0.41 0.39 0.37 0.37 0.38 0.39 0.43 0.46 0.47 0.48 0.49 0.50 0.49
0.23 0.23 0.29 0.27 0.25 0.23 0.20 0.17 0.17 0.20 0.20 0.17 0.16 0.15 0.16 0.19 0.20 0.22 0.24 0.26 0.28 0.29 0.32 0.39 0.43 0.46 0.45 0.47 0.48 0.42 0.39 0.38 0.42 0.44 0.44 0.44 0.45 0.47 0.50 0.53 0.51 0.50 0.48 0.49
0.24 0.28 0.31 0.25 0.21 0.20 0.19 0.17 0.18 0.17 0.19 0.19 0.17 0.13 0.15 0.20 0.22 0.24 0.26 0.29 0.30 0.31 0.33 0.38 0.42 0.44 0.46 0.46 0.41 0.37 0.36 0.42 0.43 0.44 0.47 0.46 0.48 0.49 0.47 0.44 0.44 0.46 0.48 0.49
0.28 0.29 0.24 0.22 0.20 0.22 0.16 0.21 0.19 0.16 0.14 0.13 0.19 0.09 0.13 0.17 0.19 0.23 0.26 0.28 0.30 0.33 0.37 0.39 0.40 0.43 0.44 0.41 0.38 0.37 0.41 0.40 0.42 0.44 0.42 0.41 0.40 0.37 0.41 0.43 0.46 0.47 0.50 0.50
0.23 0.24 0.24 0.22 0.22 0.24 0.21 0.23 0.19 0.18 0.16 0.14 0.14 0.11 0.13 0.19 0.17 0.20 0.25 0.29 0.33 0.36 0.37 0.37 0.40 0.41 0.39 0.37 0.37 0.41 0.40 0.40 0.41 0.43 0.43 0.40 0.38 0.40 0.43 0.45 0.44 0.46 0.48 0.50
0.27 0.34 0.30 0.26 0.27 0.25 0.24 0.20 0.19 0.20 0.17 0.10 0.15 0.14 0.12 0.17 0.19 0.21 0.26 0.30 0.33 0.35 0.36 0.37 0.37 0.35 0.34 0.38 0.39 0.39 0.39 0.40 0.43 0.44 0.42 0.40 0.39 0.41 0.42 0.43 0.43 0.43 0.46 0.48
0.24 0.24 0.29 0.31 0.23 0.24 0.22 0.17 0.13 0.12 0.11 0.10 0.21 0.14 0.13 0.23 0.25 0.24 0.25 0.28 0.31 0.34 0.33 0.31 0.31 0.31 0.33 0.35 0.38 0.39 0.42 0.42 0.42 0.41 0.40 0.41 0.42 0.44 0.44 0.44 0.44 0.44 0.44 0.45
0.16 0.13 0.24 0.29 0.26 0.22 0.20 0.18 0.15 0.09 0.11 0.14 0.18 0.11 0.15 0.24 0.24 0.24 0.28 0.29 0.30 0.32 0.31 0.30 0.31 0.33 0.35 0.37 0.39 0.42 0.42 0.40 0.40 0.40 0.41 0.43 0.44 0.46 0.48 0.48 0.49 0.48 0.47 0.48
0.17 0.19 0.30 0.30 0.30 0.27 0.21 0.15 0.22 0.15 0.15 0.11 0.13 0.17 0.20 0.21 0.20 0.22 0.24 0.27 0.29 0.32 0.31 0.32 0.34 0.36 0.37 0.39 0.40 0.41 0.41 0.40 0.40 0.42 0.43 0.45 0.47 0.49 0.49 0.50 0.52 0.51 0.51 0.50
0.20 0.17 0.27 0.30 0.31 0.28 0.25 0.26 0.15 0.15 0.10 0.10 0.12 0.13 0.14 0.18 0.17 0.20 0.22 0.24 0.28 0.30 0.30 0.31 0.34 0.35 0.37 0.40 0.40 0.40 0.40 0.40 0.42 0.44 0.46 0.48 0.51 0.52 0.53 0.55 0.54 0.54 0.55 0.55
0.20 0.17 0.21 0.25 0.22 0.22 0.21 0.18 0.18 0.19 0.16 0.10 0.09 0.13 0.18 0.14 0.16 0.18 0.22 0.25 0.26 0.28 0.31 0.33 0.37 0.39 0.40 0.42 0.42 0.42 0.44 0.45 0.48 0.51 0.53 0.56 0.58 0.59 0.60 0.59 0.59 0.59 0.57 0.54
0.22 0.18 0.16 0.18 0.26 0.27 0.25 0.20 0.18 0.12 0.11 0.11 0.10 0.07 0.14 0.16 0.18 0.21 0.23 0.26 0.28 0.34 0.39 0.42 0.44 0.47 0.49 0.51 0.53 0.54 0.56 0.56 0.57 0.58 0.58 0.59 0.61 0.61 0.60 0.59 0.58 0.56 0.51 0.47
0.21 0.15 0.12 0.12 0.17 0.18 0.15 0.15 0.16 0.15 0.14 0.09 0.07 0.06 0.16 0.18 0.18 0.21 0.24 0.28 0.32 0.42 0.53 0.54 0.52 0.53 0.55 0.57 0.58 0.58 0.56 0.56 0.57 0.57 0.56 0.56 0.57 0.59 0.57 0.53 0.50 0.47 0.45 0.42
0.20 0.13 0.10 0.09 0.10 0.15 0.09 0.10 0.12 0.12 0.08 0.07 0.07 0.08 0.12 0.20 0.28 0.33 0.38 0.43 0.47 0.49 0.50 0.51 0.52 0.51 0.52 0.55 0.57 0.58 0.56 0.57 0.57 0.56 0.54 0.54 0.55 0.55 0.51 0.47 0.46 0.44 0.43 0.40
0.15 0.09 0.10 0.10 0.10 0.10 0.10 0.10 0.12 0.12 0.12 0.12 0.17 0.20 0.26 0.33 0.37 0.40 0.44 0.46 0.47 0.47 0.47 0.46 0.47 0.49 0.51 0.52 0.55 0.56 0.56 0.57 0.56 0.54 0.54 0.54 0.53 0.52 0.49 0.47 0.46 0.45 0.42 0.40
0.19 0.12 0.17 0.17 0.24 0.25 0.24 0.28 0.27 0.28 0.29 0.28 0.28 0.28 0.40 0.42 0.43 0.42 0.44 0.45 0.45 0.47 0.48 0.48 0.48 0.49 0.51 0.54 0.55 0.56 0.57 0.58 0.58 0.56 0.55 0.54 0.53 0.52 0.50 0.50 0.48 0.46 0.42 0.39
0.30 0.26 0.26 0.23 0.32 0.31 0.24 0.27 0.29 0.29 0.30 0.28 0.24 0.30 0.37 0.38 0.41 0.42 0.43 0.44 0.44 0.45 0.47 0.49 0.52 0.52 0.53 0.55 0.57 0.56 0.58 0.60 0.58 0.57 0.57 0.56 0.54 0.53 0.52 0.51 0.48 0.45 0.42 0.39
0.29 0.27 0.27 0.23 0.26 0.15 0.27 0.35 0.33 0.30 0.33 0.36 0.37 0.38 0.41 0.43 0.45 0.47 0.48 0.47 0.47 0.48 0.48 0.50 0.52 0.55 0.58 0.59 0.60 0.61 0.61 0.61 0.60 0.59 0.57 0.55 0.54 0.53 0.50 0.46 0.44 0.41 0.38 0.35
0.35 0.31 0.26 0.23 0.23 0.26 0.28 0.32 0.31 0.30 0.30 0.38 0.37 0.40 0.43 0.46 0.47 0.47 0.51 0.51 0.49 0.50 0.50 0.50 0.50 0.50 0.53 0.56 0.59 0.59 0.59 0.60 0.59 0.58 0.56 0.55 0.53 0.48 0.46 0.44 0.40 0.36 0.33 0.31
0.38 0.37 0.31 0.29 0.23 0.19 0.28 0.37 0.40 0.39 0.27 0.40 0.42 0.42 0.44 0.46 0.35 0.42 0.51 0.53 0.52 0.52 0.52 0.51 0.51 0.50 0.48 0.49 0.49 0.49 0.50 0.51 0.51 0.52 0.51 0.49 0.47 0.43 0.40 0.37 0.34 0.32 0.30 0.27
0.31 0.33 0.29 0.30 0.28 0.30 0.38 0.41 0.43 0.27 0.29 0.44 0.46 0.46 0.47 0.43 0.48 0.51 0.53 0.50 0.49 0.47 0.45 0.45 0.44 0.41 0.41 0.42 0.42 0.38 0.38 0.36 0.39 0.41 0.41 0.41 0.40 0.35 0.32 0.29 0.27 0.25 0.24 0.22
0.32 0.30 0.30 0.32 0.28 0.23 0.43 0.41 0.33 0.41 0.48 0.49 0.51 0.52 0.50 0.49 0.48 0.47 0.45 0.42 0.41 0.38 0.38 0.38 0.36 0.35 0.35 0.34 0.33 0.32 0.31 0.33 0.33 0.30 0.29 0.29 0.28 0.28 0.27 0.26 0.25 0.24 0.24 0.22
0.31 0.35 0.33 0.35 0.34 0.46 0.50 0.47 0.53 0.54 0.53 0.55 0.52 0.50 0.48 0.44 0.42 0.40 0.35 0.32 0.29 0.24 0.22 0.22 0.21 0.21 0.21 0.22 0.22 0.21 0.21 0.23 0.22 0.23 0.23 0.25 0.26 0.25 0.25 0.24 0.22 0.21 0.21 0.20
0.40 0.43 0.37 0.37 0.41 0.43 0.48 0.52 0.55 0.57 0.53 0.51 0.50 0.46 0.43 0.36 0.33 0.29 0.25 0.20 0.18 0.17 0.16 0.16 0.15 0.14 0.14 0.15 0.17 0.18 0.18 0.19 0.20 0.21 0.20 0.21 0.21 0.21 0.22 0.23 0.23 0.21 0.18 0.17
0.40 0.41 0.37 0.37 0.43 0.47 0.49 0.53 0.55 0.51 0.50 0.47 0.43 0.36 0.32 0.27 0.23 0.19 0.16 0.15 0.14 0.14 0.14 0.14 0.14 0.14 0.13 0.14 0.15 0.15 0.16 0.17 0.17 0.20 0.20 0.20 0.21 0.21 0.21 0.22 0.22 0.21 0.20 0.19
0.41 0.35 0.34 0.33 0.46 0.46 0.47 0.50 0.52 0.45 0.39 0.34 0.29 0.25 0.23 0.20 0.17 0.14 0.13 0.13 0.13 0.14 0.16 0.17 0.17 0.17 0.16 0.15 0.14 0.15 0.16 0.16 0.16 0.17 0.18 0.19 0.19 0.20 0.21 0.21 0.19 0.20 0.20 0.20
Wind_Speed
26 23 23 24 21 16 19 19 14 12 13 13 17 17 17 16 17 18 18 18 16 16 16 17 17 18 18 19 19 19 20 20 19 19 18 18 17 17 15 16 16 16 17 18
23 21 19 19 17 15 12 14 12 11 12 13 14 17 18 17 16 16 16 16 16 15 17 17 18 18 18 18 18 18 18 18 18 18 18 17 17 16 16 17 18 18 20 20
21 18 18 18 17 14 11 11 11 10 13 14 14 15 12 12 12 13 16 15 15 16 17 17 17 17 17 17 17 17 16 16 17 17 17 17 17 17 17 19 19 20 21 22
17 17 17 17 14 12 13 11 10 10 10 12 11 14 13 12 14 15 15 16 15 16 16 17 16 17 17 16 16 16 15 15 16 16 17 17 17 17 18 19 20 21 21 22
15 15 14 13 12 12 11 10 9 10 11 10 12 11 14 12 14 15 15 15 15 16 16 16 17 16 16 16 16 15 15 15 16 17 17 17 18 18 19 20 21 22 23 23
13 14 12 12 11 9 11 10 9 10 10 11 12 11 15 12 12 13 14 14 15 16 16 16 16 16 16 16 16 16 16 16 17 17 17 18 19 20 21 21 22 22 22 22
12 11 11 11 11 10 10 8 8 9 10 13 11 11 16 13 13 14 15 15 15 15 16 16 16 16 16 16 16 16 16 17 18 18 18 19 20 21 22 22 22 23 23 23
11 8 9 9 8 8 9 9 9 11 11 12 12 15 15 13 14 15 18 15 15 16 17 16 17 17 16 16 16 17 18 18 18 19 20 21 22 22 22 23 22 22 23 22
9 7 8 7 8 8 9 10 11 11 13 13 14 16 15 14 14 14 15 14 15 16 16 17 17 17 17 18 18 18 19 19 20 21 22 23 23 24 24 24 23 23 23 23
5 6 7 8 9 9 10 10 9 11 11 14 15 15 16 14 14 14 15 16 17 17 18 18 19 19 19 19 20 21 22 23 23 24 24 25 25 25 25 24 24 24 24 24
6 7 7 8 10 10 11 12 13 12 13 14 15 16 15 15 15 17 18 17 18 19 20 21 21 22 23 24 24 25 26 26 26 26 26 26 26 26 26 26 26 26 27 27
6 7 7 8 9 11 12 13 13 12 14 15 15 19 16 15 15 15 15 15 19 23 23 24 25 25 25 26 27 27 26 26 25 26 26 27 27 27 27 27 28 29 29 30
6 8 7 9 10 11 14 14 15 14 14 17 14 17 13 14 14 16 18 21 24 25 23 24 24 25 25 26 26 26 27 27 27 28 28 29 29 29 30 30 31 31 32 32
8 9 10 10 10 10 12 14 15 14 13 16 17 16 18 18 19 20 22 23 23 23 24 25 26 27 28 28 29 29 30 30 30 30 31 31 32 32 33 34 35 35 35 35
7 9 9 12 14 15 16 17 17 20 21 19 19 20 21 20 21 22 23 25 24 24 26 28 28 29 29 30 30 30 30 31 32 33 34 35 35 36 37 38 38 39 39 39
9 11 11 15 14 16 19 21 22 23 24 25 27 28 22 22 22 22 23 24 25 26 28 28 29 29 30 30 31 32 31 33 34 35 37 38 39 40 41 42 42 43 43 43
10 12 12 14 14 17 20 23 22 20 21 22 24 23 22 22 22 23 24 25 27 28 29 29 29 30 29 30 30 32 34 35 36 39 40 42 43 44 45 46 46 46 46 46
14 14 15 17 18 18 18 16 17 20 22 21 23 22 22 24 25 25 26 26 28 30 31 31 31 31 31 33 34 36 38 39 41 43 44 45 46 47 48 47 48 47 47 47
18 18 18 18 19 25 24 22 21 21 23 22 22 23 25 27 28 26 28 29 31 32 32 33 34 36 38 39 40 41 41 43 45 46 47 48 48 49 49 49 49 49 48 48
19 20 20 20 22 23 22 21 22 22 26 24 23 24 25 28 28 28 33 33 33 35 36 38 40 40 41 42 43 44 45 46 47 48 49 49 50 51 51 50 50 50 49 50
19 21 24 25 25 28 24 23 25 23 25 23 24 27 30 31 33 35 35 36 37 39 41 41 42 43 44 45 45 46 46 47 48 48 50 50 50 50 51 51 50 50 50 50
21 21 22 23 25 28 25 24 25 24 25 28 31 33 34 34 34 35 37 39 40 42 43 44 44 45 46 46 47 48 48 48 49 50 50 50 50 51 51 51 51 50 50 50
24 25 24 24 25 25 26 25 27 29 31 34 34 34 34 36 37 38 40 40 41 43 44 45 46 48 49 49 49 49 50 51 51 51 51 51 52 52 51 51 50 49 49 48
29 28 29 28 27 29 30 30 31 33 34 34 34 35 36 37 38 40 41 41 43 45 46 48 49 50 50 51 51 51 51 51 52 52 52 53 53 52 51 50 49 49 48 48
29 29 30 32 30 31 33 34 34 34 34 34 35 36 37 39 40 41 42 44 46 47 48 49 50 52 52 52 52 51 51 51 51 51 51 51 50 50 50 49 49 49 48 48
33 35 32 34 31 32 33 33 33 34 35 36 37 38 39 40 42 44 45 46 47 49 50 50 51 52 53 52 52 51 50 50 49 49 49 48 48 47 47 47 47 47 47 47
Wind_Direction
191 192 199 201 207 219 216 217 214 225 229 240 244 252 256 255 255 261 267 272 276 279 280 285 286 288 291 294 297 301 304 307 310 311 313 312 314 314 312 311 312 313 314 315
185 190 195 203 207 214 213 210 221 230 232 244 258 261 260 259 264 268 275 272 274 278 281 283 285 287 289 293 297 300 303 306 308 310 310 311 311 310 310 309 310 310 310 310
182 187 194 199 200 202 209 220 225 232 240 249 263 267 259 263 266 270 272 276 274 277 279 282 284 286 289 293 296 298 301 305 308 310 311 311 311 309 308 309 308 309 309 310
174 186 191 195 194 213 208 226 228 242 251 252 259 267 262 261 264 269 269 274 277 280 282 283 284 286 289 291 293 296 299 302 306 311 312 313 312 311 311 310 310 310 311 311
180 181 187 188 202 216 208 224 233 248 255 264 257 270 271 266 268 269 269 272 278 281 282 283 285 287 288 288 290 291 294 299 304 309 312 313 313 312 312 312 312 312 311 312
170 181 186 191 197 203 206 223 237 249 259 264 265 264 279 272 279 277 273 274 279 281 283 284 285 285 285 286 286 288 291 296 302 305 308 311 312 313 313 313 314 313 313 313
170 177 185 198 201 211 225 233 252 268 265 258 267 276 270 277 286 289 279 276 280 283 284 283 283 282 282 282 283 286 289 294 299 302 305 308 311 312 312 312 313 314 315 315
169 189 192 205 210 223 225 238 239 251 259 270 273 271 277 284 290 290 290 277 281 282 281 281 281 280 279 280 282 285 289 293 297 299 302 305 307 309 310 311 311 313 315 316
178 188 197 210 226 234 235 246 257 268 272 277 268 274 279 286 286 286 284 280 278 282 282 282 280 279 278 279 280 283 287 291 293 296 299 302 304 306 307 308 309 310 312 313
190 190 218 220 233 236 247 255 259 269 271 272 275 277 277 285 287 281 281 280 281 284 283 282 280 278 278 277 278 281 285 288 290 293 296 299 301 303 304 305 306 308 308 309
213 213 223 231 233 240 247 255 259 267 264 272 285 280 284 279 285 284 279 278 281 283 283 282 280 279 277 278 278 280 283 286 288 291 294 296 299 301 302 302 303 304 305 305
225 239 234 245 252 260 263 265 257 264 269 271 275 282 286 287 287 283 289 290 292 289 283 284 281 279 278 279 279 280 282 284 286 289 292 295 297 298 299 300 301 301 301 301
251 247 252 265 265 262 263 259 265 272 278 270 275 283 283 282 280 284 296 297 297 298 290 286 283 280 280 281 280 280 281 283 285 288 291 293 295 296 297 298 299 299 299 299
263 264 256 255 267 266 264 266 260 260 271 273 269 277 279 282 289 294 296 295 297 297 296 294 287 283 282 282 281 281 282 283 284 287 289 291 293 295 295 296 297 297 296 296
265 265 279 274 273 272 271 271 262 261 264 269 282 280 285 287 289 293 295 296 297 298 299 298 295 288 286 283 282 283 282 282 284 286 288 290 292 293 294 294 295 295 294 293
270 272 278 279 275 270 273 270 269 267 267 271 277 281 283 287 289 293 295 296 297 299 300 301 297 295 290 286 283 283 282 283 284 286 288 289 290 291 292 293 293 293 293 292
273 277 280 281 281 286 282 273 265 273 274 275 273 280 285 288 287 290 293 295 298 299 300 301 301 298 294 290 288 286 286 285 285 287 288 289 289 290 291 291 292 291 291 291
278 278 283 284 291 280 283 288 283 284 277 280 284 285 287 288 286 287 292 295 297 299 300 300 299 298 296 294 291 289 287 286 286 286 287 288 288 289 290 290 290 290 289 289
274 280 283 282 281 286 282 285 288 286 285 282 282 284 288 291 287 286 294 297 297 297 298 298 298 297 295 294 292 290 289 288 288 287 286 287 288 288 289 289 289 288 288 288
278 276 280 282 283 284 287 287 290 288 285 287 285 287 291 292 289 286 295 296 297 298 297 297 297 297 296 295 293 291 290 289 288 288 288 288 288 289 288 288 288 288 287 287
279 278 273 276 282 285 286 285 286 285 287 288 289 291 291 290 290 291 293 295 296 297 298 298 297 297 296 295 294 292 291 290 290 289 288 288 288 288 289 289 288 288 287 287
277 277 278 278 280 284 290 287 285 286 289 290 291 290 289 290 291 292 294 295 296 298 298 298 297 297 296 296 295 293 291 291 291 290 289 289 289 289 289 288 288 287 286 286
281 277 282 279 282 285 290 288 287 288 288 289 288 290 292 291 291 293 294 296 297 298 298 298 298 297 296 296 295 294 293 292 291 290 289 288 289 289 288 288 287 287 286 285
278 281 280 285 283 283 284 285 285 287 288 289 290 291 291 291 293 294 295 296 297 298 299 299 298 297 297 297 296 295 295 294 292 290 290 289 288 288 287 287 286 286 286 285
282 287 284 282 283 283 284 284 284 287 288 290 291 292 292 292 293 293 294 295 296 298 299 300 299 298 298 298 297 296 296 295 293 291 291 290 289 288 287 287 286 285 284 284
281 280 279 282 284 285 287 286 284 287 288 289 290 292 293 294 294 295 295 295 296 298 299 300 301 299 298 298 297 297 296 295 294 293 292 291 290 289 288 288 287 286 285 285